Time,TemperatureF,DewpointF,PressureIn,WindDirection,WindDirectionDegrees,WindSpeedMPH,WindSpeedGustMPH,Humidity,HourlyPrecipIn,Conditions,Clouds,dailyrainin,SolarRadiationWatts/m^2,SoftwareType,DateUTC
2013-06-26 00:02:00,65.0,64.0,-100.00,SSW,208,0.0,2.0,98,0.00,,,0.00,0.000000,,2013-06-26 05:02:00,
2013-06-26 00:22:00,65.0,64.0,-100.00,SSW,208,0.0,2.0,98,0.00,,,0.00,0.000000,,2013-06-26 05:22:00,
2013-06-26 00:34:00,65.0,64.0,-100.00,SSW,208,0.0,2.0,98,0.00,,,0.00,0.000000,,2013-06-26 05:34:00,
2013-06-26 00:43:00,65.0,64.0,-100.00,SSW,208,0.0,2.0,98,0.00,,,0.00,0.000000,,2013-06-26 05:43:00,
2013-06-26 00:52:00,65.0,64.0,-100.00,SSW,208,0.0,2.0,98,0.00,,,0.00,0.000000,,2013-06-26 05:52:00,
2013-06-26 01:22:00,64.0,64.0,-100.00,ESE,102,2.0,3.0,99,0.00,,,0.00,0.000000,,2013-06-26 06:22:00,
2013-06-26 01:34:00,64.0,64.0,-100.00,ESE,102,2.0,3.0,99,0.00,,,0.00,0.000000,,2013-06-26 06:34:00,
2013-06-26 01:44:00,64.0,64.0,-100.00,ESE,102,2.0,3.0,99,0.00,,,0.00,0.000000,,2013-06-26 06:44:00,
2013-06-26 01:53:00,64.0,64.0,-100.00,ESE,102,2.0,3.0,99,0.00,,,0.00,0.000000,,2013-06-26 06:53:00,
2013-06-26 02:01:00,64.0,64.0,-100.00,ESE,102,2.0,3.0,99,0.00,,,0.00,0.000000,,2013-06-26 07:01:00,
2013-06-26 02:22:00,63.0,63.0,-100.00,ESE,120,0.0,3.0,99,0.00,,,0.00,0.000000,,2013-06-26 07:22:00,
2013-06-26 02:33:00,63.0,63.0,-100.00,ESE,120,0.0,3.0,99,0.00,,,0.00,0.000000,,2013-06-26 07:33:00,
2013-06-26 02:43:00,63.0,63.0,-100.00,ESE,120,0.0,3.0,99,0.00,,,0.00,0.000000,,2013-06-26 07:43:00,
2013-06-26 02:53:00,63.0,63.0,-100.00,ESE,120,0.0,3.0,99,0.00,,,0.00,0.000000,,2013-06-26 07:53:00,
2013-06-26 03:01:00,63.0,63.0,-100.00,ESE,120,0.0,3.0,99,0.00,,,0.00,0.000000,,2013-06-26 08:01:00,
2013-06-26 03:22:00,62.0,62.0,-100.00,East,97,2.0,3.0,100,0.00,,,0.00,0.000000,,2013-06-26 08:22:00,
2013-06-26 03:34:00,62.0,62.0,-100.00,East,97,2.0,3.0,100,0.00,,,0.00,0.000000,,2013-06-26 08:34:00,
2013-06-26 03:43:00,62.0,62.0,-100.00,East,97,2.0,3.0,100,0.00,,,0.00,0.000000,,2013-06-26 08:43:00,
2013-06-26 03:53:00,62.0,62.0,-100.00,East,97,2.0,3.0,100,0.00,,,0.00,0.000000,,2013-06-26 08:53:00,
2013-06-26 04:01:00,62.0,62.0,-100.00,East,97,2.0,3.0,100,0.00,,,0.00,0.000000,,2013-06-26 09:01:00,
2013-06-26 04:23:00,61.0,61.0,-100.00,SE,129,1.0,2.0,100,0.00,,,0.00,0.000000,,2013-06-26 09:23:00,
2013-06-26 04:33:00,61.0,61.0,-100.00,SE,129,1.0,2.0,100,0.00,,,0.00,0.000000,,2013-06-26 09:33:00,
2013-06-26 04:43:00,61.0,61.0,-100.00,SE,129,1.0,2.0,100,0.00,,,0.00,0.000000,,2013-06-26 09:43:00,
2013-06-26 04:53:00,61.0,61.0,-100.00,SE,129,1.0,2.0,100,0.00,,,0.00,0.000000,,2013-06-26 09:53:00,
2013-06-26 05:01:00,61.0,61.0,-100.00,SE,129,1.0,2.0,100,0.00,,,0.00,0.000000,,2013-06-26 10:01:00,
2013-06-26 05:02:00,62.0,62.0,-100.00,SE,139,1.0,2.0,100,0.00,,,0.00,1.000000,,2013-06-26 10:02:00,
2013-06-26 05:22:00,62.0,62.0,-100.00,SE,139,1.0,2.0,100,0.00,,,0.00,1.000000,,2013-06-26 10:22:00,
2013-06-26 05:34:00,62.0,62.0,-100.00,SE,139,1.0,2.0,100,0.00,,,0.00,1.000000,,2013-06-26 10:34:00,
2013-06-26 05:43:00,62.0,62.0,-100.00,SE,139,1.0,2.0,100,0.00,,,0.00,1.000000,,2013-06-26 10:43:00,
2013-06-26 05:53:00,62.0,62.0,-100.00,SE,139,1.0,2.0,100,0.00,,,0.00,1.000000,,2013-06-26 10:53:00,
2013-06-26 06:02:00,63.0,63.0,-100.00,South,186,1.0,3.0,100,0.00,,,0.00,22.000000,,2013-06-26 11:02:00,
2013-06-26 06:23:00,63.0,63.0,-100.00,South,186,1.0,3.0,100,0.00,,,0.00,22.000000,,2013-06-26 11:23:00,
2013-06-26 06:33:00,63.0,63.0,-100.00,South,186,1.0,3.0,100,0.00,,,0.00,22.000000,,2013-06-26 11:33:00,
2013-06-26 06:44:00,63.0,63.0,-100.00,South,186,1.0,3.0,100,0.00,,,0.00,22.000000,,2013-06-26 11:44:00,
2013-06-26 06:52:00,63.0,63.0,-100.00,South,186,1.0,3.0,100,0.00,,,0.00,22.000000,,2013-06-26 11:52:00,
2013-06-26 07:02:00,66.0,66.0,-100.00,South,172,2.0,5.0,100,0.00,,,0.00,63.000000,,2013-06-26 12:02:00,
2013-06-26 07:22:00,66.0,66.0,-100.00,South,172,2.0,5.0,100,0.00,,,0.00,63.000000,,2013-06-26 12:22:00,
2013-06-26 07:34:00,66.0,66.0,-100.00,South,172,2.0,5.0,100,0.00,,,0.00,63.000000,,2013-06-26 12:34:00,
2013-06-26 07:43:00,66.0,66.0,-100.00,South,172,2.0,5.0,100,0.00,,,0.00,63.000000,,2013-06-26 12:43:00,
2013-06-26 07:52:00,66.0,66.0,-100.00,South,172,2.0,5.0,100,0.00,,,0.00,63.000000,,2013-06-26 12:52:00,
2013-06-26 08:02:00,69.0,69.0,-100.00,SE,145,2.0,4.0,100,0.00,,,0.00,98.000000,,2013-06-26 13:02:00,
2013-06-26 08:34:00,69.0,69.0,-100.00,SE,145,2.0,4.0,100,0.00,,,0.00,98.000000,,2013-06-26 13:34:00,
2013-06-26 08:43:00,69.0,69.0,-100.00,SE,145,2.0,4.0,100,0.00,,,0.00,98.000000,,2013-06-26 13:43:00,
2013-06-26 08:53:00,69.0,69.0,-100.00,SE,145,2.0,4.0,100,0.00,,,0.00,98.000000,,2013-06-26 13:53:00,
2013-06-26 09:02:00,74.0,72.0,-100.00,ESE,119,3.0,6.0,93,0.00,,,0.00,297.000000,,2013-06-26 14:02:00,
2013-06-26 09:24:00,74.0,72.0,-100.00,ESE,119,3.0,6.0,93,0.00,,,0.00,297.000000,,2013-06-26 14:24:00,
2013-06-26 09:34:00,74.0,72.0,-100.00,ESE,119,3.0,6.0,93,0.00,,,0.00,297.000000,,2013-06-26 14:34:00,
2013-06-26 09:42:00,74.0,72.0,-100.00,ESE,119,3.0,6.0,93,0.00,,,0.00,297.000000,,2013-06-26 14:42:00,
2013-06-26 09:53:00,74.0,72.0,-100.00,ESE,119,3.0,6.0,93,0.00,,,0.00,297.000000,,2013-06-26 14:53:00,
2013-06-26 10:22:00,80.0,71.0,-100.00,SW,214,4.0,10.0,73,0.00,,,0.00,613.000000,,2013-06-26 15:22:00,
2013-06-26 10:34:00,80.0,71.0,-100.00,SW,214,4.0,10.0,73,0.00,,,0.00,613.000000,,2013-06-26 15:34:00,
2013-06-26 10:44:00,80.0,71.0,-100.00,SW,214,4.0,10.0,73,0.00,,,0.00,613.000000,,2013-06-26 15:44:00,
2013-06-26 10:53:00,80.0,71.0,-100.00,SW,214,4.0,10.0,73,0.00,,,0.00,613.000000,,2013-06-26 15:53:00,
2013-06-26 11:01:00,80.0,71.0,-100.00,SW,214,4.0,10.0,73,0.00,,,0.00,613.000000,,2013-06-26 16:01:00,
2013-06-26 11:02:00,81.0,70.0,-100.00,SSE,161,4.0,10.0,70,0.00,,,0.00,352.000000,,2013-06-26 16:02:00,
2013-06-26 11:22:00,81.0,70.0,-100.00,SSE,161,4.0,10.0,70,0.00,,,0.00,352.000000,,2013-06-26 16:22:00,
2013-06-26 11:34:00,81.0,70.0,-100.00,SSE,161,4.0,10.0,70,0.00,,,0.00,352.000000,,2013-06-26 16:34:00,
2013-06-26 11:43:00,81.0,70.0,-100.00,SSE,161,4.0,10.0,70,0.00,,,0.00,352.000000,,2013-06-26 16:43:00,
2013-06-26 11:52:00,81.0,70.0,-100.00,SSE,161,4.0,10.0,70,0.00,,,0.00,352.000000,,2013-06-26 16:52:00,
2013-06-26 12:24:00,81.0,69.0,-100.00,SSW,213,6.0,14.0,67,0.00,,,0.00,476.000000,,2013-06-26 17:24:00,
2013-06-26 12:33:00,81.0,69.0,-100.00,SSW,213,6.0,14.0,67,0.00,,,0.00,476.000000,,2013-06-26 17:33:00,
2013-06-26 12:43:00,81.0,69.0,-100.00,SSW,213,6.0,14.0,67,0.00,,,0.00,476.000000,,2013-06-26 17:43:00,
2013-06-26 12:52:00,81.0,69.0,-100.00,SSW,213,6.0,14.0,67,0.00,,,0.00,476.000000,,2013-06-26 17:52:00,
2013-06-26 13:01:00,81.0,69.0,-100.00,SSW,213,6.0,14.0,67,0.00,,,0.00,476.000000,,2013-06-26 18:01:00,
2013-06-26 13:02:00,82.0,69.0,-100.00,SSW,204,6.0,15.0,66,0.00,,,0.00,507.000000,,2013-06-26 18:02:00,
2013-06-26 13:22:00,82.0,69.0,-100.00,SSW,204,6.0,15.0,66,0.00,,,0.00,507.000000,,2013-06-26 18:22:00,
2013-06-26 13:34:00,82.0,69.0,-100.00,SSW,204,6.0,15.0,66,0.00,,,0.00,507.000000,,2013-06-26 18:34:00,
2013-06-26 13:43:00,82.0,69.0,-100.00,SSW,204,6.0,15.0,66,0.00,,,0.00,507.000000,,2013-06-26 18:43:00,
2013-06-26 13:52:00,82.0,69.0,-100.00,SSW,204,6.0,15.0,66,0.00,,,0.00,507.000000,,2013-06-26 18:52:00,
2013-06-26 14:22:00,83.0,69.0,-100.00,SW,222,5.0,11.0,63,0.00,,,0.00,452.000000,,2013-06-26 19:22:00,
2013-06-26 14:33:00,83.0,69.0,-100.00,SW,222,5.0,11.0,63,0.00,,,0.00,452.000000,,2013-06-26 19:33:00,
2013-06-26 14:43:00,83.0,69.0,-100.00,SW,222,5.0,11.0,63,0.00,,,0.00,452.000000,,2013-06-26 19:43:00,
2013-06-26 14:52:00,83.0,69.0,-100.00,SW,222,5.0,11.0,63,0.00,,,0.00,452.000000,,2013-06-26 19:52:00,
2013-06-26 15:01:00,83.0,69.0,-100.00,SW,222,5.0,11.0,63,0.00,,,0.00,452.000000,,2013-06-26 20:01:00,
2013-06-26 15:02:00,85.0,70.0,-100.00,SW,233,5.0,13.0,61,0.00,,,0.00,476.000000,,2013-06-26 20:02:00,
2013-06-26 15:22:00,85.0,70.0,-100.00,SW,233,5.0,13.0,61,0.00,,,0.00,476.000000,,2013-06-26 20:22:00,
2013-06-26 15:34:00,85.0,70.0,-100.00,SW,233,5.0,13.0,61,0.00,,,0.00,476.000000,,2013-06-26 20:34:00,
2013-06-26 15:43:00,85.0,70.0,-100.00,SW,233,5.0,13.0,61,0.00,,,0.00,476.000000,,2013-06-26 20:43:00,
2013-06-26 15:52:00,85.0,70.0,-100.00,SW,233,5.0,13.0,61,0.00,,,0.00,476.000000,,2013-06-26 20:52:00,
2013-06-26 16:23:00,86.0,68.0,-100.00,WSW,239,5.0,11.0,56,0.00,,,0.00,512.000000,,2013-06-26 21:23:00,
2013-06-26 16:33:00,86.0,68.0,-100.00,WSW,239,5.0,11.0,56,0.00,,,0.00,512.000000,,2013-06-26 21:33:00,
2013-06-26 16:43:00,86.0,68.0,-100.00,WSW,239,5.0,11.0,56,0.00,,,0.00,512.000000,,2013-06-26 21:43:00,
2013-06-26 16:52:00,86.0,68.0,-100.00,WSW,239,5.0,11.0,56,0.00,,,0.00,512.000000,,2013-06-26 21:52:00,
2013-06-26 17:01:00,86.0,68.0,-100.00,WSW,239,5.0,11.0,56,0.00,,,0.00,512.000000,,2013-06-26 22:01:00,
2013-06-26 17:02:00,83.0,68.0,-100.00,SW,236,3.0,11.0,61,0.00,,,-99.99,275.000000,,2013-06-26 22:02:00,
2013-06-26 17:22:00,83.0,68.0,-100.00,SW,236,3.0,11.0,61,0.00,,,-99.99,275.000000,,2013-06-26 22:22:00,
2013-06-26 17:34:00,83.0,68.0,-100.00,SW,236,3.0,11.0,61,0.00,,,-99.99,275.000000,,2013-06-26 22:34:00,
2013-06-26 17:43:00,83.0,68.0,-100.00,SW,236,3.0,11.0,61,0.00,,,-99.99,275.000000,,2013-06-26 22:43:00,
2013-06-26 17:52:00,83.0,68.0,-100.00,SW,236,3.0,11.0,61,0.00,,,-99.99,275.000000,,2013-06-26 22:52:00,
2013-06-26 18:22:00,71.0,63.0,-100.00,NNW,345,6.0,18.0,75,0.00,,,0.00,123.000000,,2013-06-26 23:22:00,
2013-06-26 18:34:00,71.0,63.0,-100.00,NNW,345,6.0,18.0,75,0.00,,,0.00,123.000000,,2013-06-26 23:34:00,
2013-06-26 18:43:00,71.0,63.0,-100.00,NNW,345,6.0,18.0,75,0.00,,,0.00,123.000000,,2013-06-26 23:43:00,
2013-06-26 18:53:00,71.0,63.0,-100.00,NNW,345,6.0,18.0,75,0.00,,,0.00,123.000000,,2013-06-26 23:53:00,
2013-06-26 19:01:00,71.0,63.0,-100.00,NNW,345,6.0,18.0,75,0.00,,,0.00,123.000000,,2013-06-27 00:01:00,
2013-06-26 19:22:00,64.0,63.0,-100.00,SSW,198,3.0,21.0,95,0.05,,,0.05,4.000000,,2013-06-27 00:22:00,
2013-06-26 19:34:00,64.0,63.0,-100.00,SSW,198,3.0,21.0,95,0.05,,,0.05,4.000000,,2013-06-27 00:34:00,
2013-06-26 19:43:00,64.0,63.0,-100.00,SSW,198,3.0,21.0,95,0.05,,,0.05,4.000000,,2013-06-27 00:43:00,
2013-06-26 19:53:00,64.0,63.0,-100.00,SSW,198,3.0,21.0,95,0.05,,,0.05,4.000000,,2013-06-27 00:53:00,
2013-06-26 20:01:00,64.0,63.0,-100.00,SSW,198,3.0,21.0,95,0.05,,,0.05,4.000000,,2013-06-27 01:01:00,
2013-06-26 20:22:00,64.0,63.0,-100.00,NNE,16,1.0,7.0,98,0.00,,,0.05,3.000000,,2013-06-27 01:22:00,
2013-06-26 20:32:00,64.0,63.0,-100.00,NNE,16,1.0,7.0,98,0.00,,,0.05,3.000000,,2013-06-27 01:32:00,
2013-06-26 20:43:00,64.0,63.0,-100.00,NNE,16,1.0,7.0,98,0.00,,,0.05,3.000000,,2013-06-27 01:43:00,
2013-06-26 20:53:00,64.0,63.0,-100.00,NNE,16,1.0,7.0,98,0.00,,,0.05,3.000000,,2013-06-27 01:53:00,
2013-06-26 21:01:00,64.0,63.0,-100.00,NNE,16,1.0,7.0,98,0.00,,,0.05,3.000000,,2013-06-27 02:01:00,
2013-06-26 21:02:00,64.0,64.0,-100.00,East,96,2.0,5.0,99,0.12,,,0.17,5.000000,,2013-06-27 02:02:00,
2013-06-26 21:22:00,64.0,64.0,-100.00,East,96,2.0,5.0,99,0.12,,,0.17,5.000000,,2013-06-27 02:22:00,
2013-06-26 21:32:00,64.0,64.0,-100.00,East,96,2.0,5.0,99,0.12,,,0.17,5.000000,,2013-06-27 02:32:00,
2013-06-26 21:42:00,64.0,64.0,-100.00,East,96,2.0,5.0,99,0.12,,,0.17,5.000000,,2013-06-27 02:42:00,
2013-06-26 21:52:00,64.0,64.0,-100.00,East,96,2.0,5.0,99,0.12,,,0.17,5.000000,,2013-06-27 02:52:00,
2013-06-26 22:22:00,64.0,64.0,-100.00,SSE,167,0.0,3.0,99,0.00,,,0.17,0.000000,,2013-06-27 03:22:00,
2013-06-26 22:33:00,64.0,64.0,-100.00,SSE,167,0.0,3.0,99,0.00,,,0.17,0.000000,,2013-06-27 03:33:00,
2013-06-26 22:42:00,64.0,64.0,-100.00,SSE,167,0.0,3.0,99,0.00,,,0.17,0.000000,,2013-06-27 03:42:00,
2013-06-26 22:52:00,64.0,64.0,-100.00,SSE,167,0.0,3.0,99,0.00,,,0.17,0.000000,,2013-06-27 03:52:00,
2013-06-26 23:01:00,64.0,64.0,-100.00,SSE,167,0.0,3.0,99,0.00,,,0.17,0.000000,,2013-06-27 04:01:00,
2013-06-26 23:02:00,63.0,63.0,-100.00,SSW,196,1.0,3.0,100,0.00,,,0.17,0.000000,,2013-06-27 04:02:00,
2013-06-26 23:22:00,63.0,63.0,-100.00,SSW,196,1.0,3.0,100,0.00,,,0.17,0.000000,,2013-06-27 04:22:00,
2013-06-26 23:33:00,63.0,63.0,-100.00,SSW,196,1.0,3.0,100,0.00,,,0.17,0.000000,,2013-06-27 04:33:00,
2013-06-26 23:42:00,63.0,63.0,-100.00,SSW,196,1.0,3.0,100,0.00,,,0.17,0.000000,,2013-06-27 04:42:00,
2013-06-26 23:53:00,63.0,63.0,-100.00,SSW,196,1.0,3.0,100,0.00,,,0.17,0.000000,,2013-06-27 04:53:00,